PDA6105 HESH-UKWW

Flight info

Callsign PDA6105
Flight time 3h 5m
Altitude 33000
Route NOVPA2L NOVPA R650 NALSO J10 ZFR T94 MZD J10 TOMAL/N0454F340 J10 NAT H14 MERVA N131 DOREN UA28 MUT UL621 BUK UM861 RAKUR/K0824F340 M856 DIGAM P156 ODESE M854 ODSAN P156 NIROV
Aircraft A321/M-SDE3FGHIJ4RWY/LB1

Departure

Time 2026-05-04 17:55
Airport Sharm El Sheikh International Airport (HESH)

Arrival

Time 2026-05-04 21:00
Airport Vinnytsia/Gavyryshivka International Airport (UKWW)
Time Latitude Longitude Altitude Speed Heading
2026-05-04 17:33 27.97833 34.38736 172 ft 0 kts 133°
2026-05-04 17:45 27.97845 34.38723 172 ft 4 kts 145°
2026-05-04 17:45 27.97868 34.38711 172 ft 4 kts 177°
2026-05-04 17:45 27.97891 34.38716 172 ft 3 kts 221°
2026-05-04 17:46 27.97893 34.38718 172 ft 0 kts 223°
2026-05-04 17:50 27.97887 34.38712 172 ft 4 kts 223°
2026-05-04 17:50 27.97856 34.38679 172 ft 9 kts 223°
2026-05-04 17:50 27.97799 34.38618 172 ft 14 kts 223°
2026-05-04 17:51 27.97717 34.38531 172 ft 18 kts 223°
2026-05-04 17:51 27.97618 34.38428 172 ft 18 kts 223°
2026-05-04 17:51 27.97548 34.38421 172 ft 10 kts 132°
2026-05-04 17:51 27.97486 34.38491 172 ft 15 kts 132°
2026-05-04 17:52 27.97411 34.38532 172 ft 11 kts 218°
2026-05-04 17:52 27.97339 34.38460 172 ft 16 kts 223°
2026-05-04 17:52 27.97246 34.38363 172 ft 21 kts 222°
2026-05-04 17:52 27.97129 34.38242 172 ft 25 kts 223°
2026-05-04 17:53 27.97016 34.38129 173 ft 11 kts 206°
2026-05-04 17:53 27.96947 34.38157 173 ft 12 kts 119°
2026-05-04 17:53 27.96885 34.38243 173 ft 15 kts 127°
2026-05-04 17:53 27.96905 34.38310 173 ft 0 kts 43°
2026-05-04 17:54 27.96924 34.38330 173 ft 14 kts 43°
2026-05-04 17:54 27.97176 34.38592 175 ft 83 kts 43°
2026-05-04 17:54 27.97739 34.39178 174 ft 138 kts 42°
2026-05-04 17:54 27.98554 34.40050 334 ft 168 kts 40°
2026-05-04 17:55 27.99469 34.40741 1149 ft 160 kts 26°
2026-05-04 17:55 28.00482 34.41324 1563 ft 169 kts 26°
2026-05-04 17:55 28.01593 34.41936 1700 ft 187 kts 26°
2026-05-04 17:55 28.02824 34.42616 1817 ft 206 kts 26°
2026-05-04 17:56 28.04185 34.43374 1911 ft 230 kts 26°
2026-05-04 17:56 28.05690 34.44219 2143 ft 251 kts 28°
2026-05-04 17:56 28.07284 34.45120 2751 ft 257 kts 26°
2026-05-04 17:56 28.08871 34.46021 3324 ft 261 kts 26°
2026-05-04 17:57 28.10510 34.46955 3885 ft 267 kts 26°
2026-05-04 17:57 28.12177 34.47894 4568 ft 267 kts 20°
2026-05-04 17:57 28.13955 34.48371 5250 ft 263 kts 359°
2026-05-04 17:57 28.15803 34.48417 5815 ft 268 kts 357°
2026-05-04 17:58 28.17689 34.48444 6385 ft 274 kts 358°
2026-05-04 17:58 28.19614 34.48466 6898 ft 280 kts 358°
2026-05-04 17:58 28.21571 34.48491 7486 ft 283 kts 353°
2026-05-04 17:58 28.23551 34.48661 8058 ft 291 kts
2026-05-04 17:59 28.25550 34.49111 8641 ft 295 kts
2026-05-04 17:59 28.27569 34.49574 9232 ft 298 kts
2026-05-04 17:59 28.31697 34.50525 10232 ft 312 kts
2026-05-04 18:00 28.33866 34.51016 10351 ft 331 kts
2026-05-04 18:00 28.36188 34.51541 10474 ft 350 kts
2026-05-04 18:00 28.38637 34.52097 10593 ft 368 kts
2026-05-04 18:00 28.41202 34.52684 10725 ft 384 kts
2026-05-04 18:01 28.43879 34.53300 10837 ft 400 kts
2026-05-04 18:01 28.46646 34.53944 11070 ft 410 kts
2026-05-04 18:01 28.49459 34.54602 11523 ft 415 kts
2026-05-04 18:02 28.55125 34.55931 12507 ft 422 kts
2026-05-04 18:02 28.58014 34.56604 13019 ft 426 kts
2026-05-04 18:02 28.60932 34.57279 13521 ft 429 kts
2026-05-04 18:02 28.63868 34.57957 13988 ft 433 kts
2026-05-04 18:03 28.66835 34.58644 14427 ft 436 kts
2026-05-04 18:03 28.69816 34.59333 14852 ft 439 kts
2026-05-04 18:03 28.72822 34.60029 15266 ft 442 kts
2026-05-04 18:03 28.75849 34.60736 15701 ft 445 kts
2026-05-04 18:04 28.78892 34.61445 16018 ft 448 kts
2026-05-04 18:04 28.81909 34.62148 16212 ft 450 kts
2026-05-04 18:04 28.88043 34.63580 17495 ft 439 kts
2026-05-04 18:05 28.90978 34.64272 18548 ft 423 kts
2026-05-04 18:05 28.93826 34.64938 19349 ft 416 kts
2026-05-04 18:05 28.96706 34.65601 19480 ft 428 kts
2026-05-04 18:05 28.99665 34.66275 19621 ft 439 kts
2026-05-04 18:06 29.05683 34.68084 19870 ft 465 kts 13°
2026-05-04 18:06 29.08757 34.69352 19990 ft 474 kts 13°
2026-05-04 18:06 29.11887 34.70643 20118 ft 482 kts 13°
2026-05-04 18:07 29.15061 34.71951 20334 ft 487 kts 13°
2026-05-04 18:07 29.18255 34.73267 20633 ft 490 kts 13°
2026-05-04 18:07 29.21476 34.74592 20928 ft 494 kts 13°
2026-05-04 18:07 29.24714 34.75922 21205 ft 497 kts 13°
2026-05-04 18:08 29.27977 34.77259 21498 ft 499 kts 13°
2026-05-04 18:08 29.31254 34.78604 21798 ft 501 kts 13°
2026-05-04 18:08 29.34503 34.79942 22083 ft 504 kts 13°
2026-05-04 18:08 29.37806 34.81307 22367 ft 506 kts 13°
2026-05-04 18:09 29.44462 34.84059 22978 ft 510 kts 13°
2026-05-04 18:09 29.51084 34.87200 23567 ft 524 kts 24°
2026-05-04 18:10 29.54150 34.89495 23919 ft 530 kts 33°
2026-05-04 18:10 29.56960 34.92258 24250 ft 533 kts 38°
2026-05-04 18:10 29.59848 34.94890 24571 ft 526 kts 28°
2026-05-04 18:10 29.62981 34.96889 24929 ft 518 kts 18°
2026-05-04 18:11 29.66313 34.98347 25266 ft 509 kts
2026-05-04 18:11 29.69723 34.99308 25611 ft 501 kts
2026-05-04 18:11 29.73166 34.99980 25902 ft 502 kts
2026-05-04 18:11 29.76601 35.00658 26240 ft 502 kts
2026-05-04 18:12 29.80041 35.01343 26595 ft 501 kts
2026-05-04 18:12 29.83483 35.02025 26977 ft 500 kts
2026-05-04 18:12 29.86910 35.02694 27339 ft 499 kts
2026-05-04 18:12 29.90335 35.03352 27708 ft 499 kts
2026-05-04 18:13 29.93705 35.03999 28066 ft 498 kts
2026-05-04 18:13 29.97124 35.04657 28424 ft 498 kts
2026-05-04 18:13 30.03953 35.05991 29172 ft 497 kts
2026-05-04 18:14 30.07357 35.06661 29616 ft 496 kts
2026-05-04 18:14 30.10759 35.07342 29980 ft 495 kts
2026-05-04 18:14 30.14150 35.08038 30316 ft 494 kts
2026-05-04 18:15 30.20869 35.09443 30877 ft 494 kts
2026-05-04 18:15 30.27624 35.10822 31456 ft 492 kts
2026-05-04 18:15 30.31003 35.11463 31726 ft 492 kts
2026-05-04 18:16 30.34383 35.12082 31991 ft 491 kts 360°
2026-05-04 18:16 30.37758 35.12697 32242 ft 491 kts 360°
2026-05-04 18:16 30.41132 35.13322 32490 ft 492 kts
2026-05-04 18:17 30.47885 35.14617 32988 ft 492 kts
2026-05-04 18:17 30.51223 35.15266 33082 ft 496 kts 360°
2026-05-04 18:18 30.61510 35.17572 33070 ft 508 kts
2026-05-04 18:18 30.68363 35.19724 33070 ft 511 kts
2026-05-04 18:19 30.78641 35.22992 33068 ft 509 kts
2026-05-04 18:19 30.85459 35.25003 33016 ft 509 kts
2026-05-04 18:20 30.92343 35.27008 33109 ft 511 kts
2026-05-04 18:20 30.99233 35.29047 33065 ft 511 kts
2026-05-04 18:21 31.06077 35.31097 33068 ft 512 kts
2026-05-04 18:21 31.12979 35.33162 33114 ft 512 kts
2026-05-04 18:22 31.19881 35.35213 33097 ft 512 kts
2026-05-04 18:22 31.26774 35.37257 33089 ft 511 kts
2026-05-04 18:23 31.33633 35.39292 33156 ft 511 kts
2026-05-04 18:23 31.37079 35.40211 33042 ft 506 kts
2026-05-04 18:23 31.40519 35.41008 33043 ft 503 kts
2026-05-04 18:24 31.47408 35.42412 33041 ft 503 kts 360°
2026-05-04 18:24 31.54308 35.43838 33094 ft 505 kts
2026-05-04 18:25 31.61215 35.45368 33091 ft 505 kts
2026-05-04 18:25 31.68049 35.46380 33087 ft 489 kts 350°
2026-05-04 18:26 31.71403 35.46176 33076 ft 477 kts 342°
2026-05-04 18:26 31.74618 35.45457 33098 ft 465 kts 333°
2026-05-04 18:26 31.77649 35.44281 33103 ft 453 kts 326°
2026-05-04 18:26 31.80457 35.42724 33072 ft 441 kts 320°
2026-05-04 18:27 31.85426 35.38759 33065 ft 430 kts 313°
2026-05-04 18:27 31.90207 35.34613 33064 ft 430 kts 313°
2026-05-04 18:28 31.95023 35.30429 33068 ft 431 kts 313°
2026-05-04 18:28 31.99841 35.26226 33076 ft 431 kts 313°
2026-05-04 18:29 32.04654 35.22016 33036 ft 432 kts 314°
2026-05-04 18:29 32.09502 35.17785 33054 ft 435 kts 314°
2026-05-04 18:30 32.16793 35.11439 33352 ft 437 kts 314°
2026-05-04 18:30 32.19234 35.09305 33596 ft 437 kts 314°
2026-05-04 18:31 32.21678 35.07168 33832 ft 436 kts 314°
2026-05-04 18:31 32.24116 35.05037 34023 ft 436 kts 314°
2026-05-04 18:31 32.26558 35.02902 34045 ft 436 kts 314°
2026-05-04 18:32 32.31400 34.98658 34089 ft 436 kts 314°
2026-05-04 18:32 32.36211 34.94350 34041 ft 432 kts 312°
2026-05-04 18:33 32.40883 34.89921 34034 ft 429 kts 311°
2026-05-04 18:33 32.44738 34.86218 34032 ft 429 kts 311°
2026-05-04 18:34 32.49396 34.81778 34039 ft 430 kts 311°
2026-05-04 18:34 32.54832 34.76631 34043 ft 431 kts 311°
2026-05-04 18:35 32.59510 34.72190 34057 ft 430 kts 311°
2026-05-04 18:35 32.63365 34.68512 34048 ft 427 kts 311°
2026-05-04 18:36 32.67998 34.64092 34044 ft 427 kts 311°
2026-05-04 18:36 32.73367 34.58968 34032 ft 424 kts 311°
2026-05-04 18:37 32.77276 34.55362 34026 ft 431 kts 317°
2026-05-04 18:37 32.79907 34.53648 34024 ft 444 kts 326°
2026-05-04 18:37 32.82826 34.52325 34022 ft 451 kts 329°
2026-05-04 18:38 32.88722 34.49778 34031 ft 451 kts 329°
2026-05-04 18:38 32.94620 34.47211 34050 ft 451 kts 329°
2026-05-04 18:39 33.00466 34.44654 34027 ft 448 kts 329°
2026-05-04 18:39 33.06301 34.42101 34019 ft 447 kts 329°
2026-05-04 18:40 33.12135 34.39539 34017 ft 447 kts 329°
2026-05-04 18:40 33.17979 34.36973 34016 ft 448 kts 329°
2026-05-04 18:41 33.23824 34.34394 34023 ft 448 kts 329°
2026-05-04 18:41 33.29638 34.31826 34017 ft 448 kts 329°
2026-05-04 18:42 33.35484 34.29232 34020 ft 448 kts 329°
2026-05-04 18:42 33.41314 34.26611 34020 ft 448 kts 328°
2026-05-04 18:43 33.47144 34.23974 34028 ft 448 kts 328°
2026-05-04 18:43 33.52942 34.21352 34018 ft 448 kts 329°
2026-05-04 18:44 33.58779 34.18715 34010 ft 449 kts 329°
2026-05-04 18:44 33.64620 34.16073 34007 ft 449 kts 329°
2026-05-04 18:45 33.70473 34.13424 34001 ft 449 kts 329°
2026-05-04 18:45 33.76329 34.10776 33996 ft 450 kts 329°
2026-05-04 18:46 33.82179 34.08119 33984 ft 450 kts 329°
2026-05-04 18:46 33.88055 34.05585 33984 ft 453 kts 330°
2026-05-04 18:47 33.94026 34.03132 33981 ft 454 kts 331°
2026-05-04 18:47 34.00006 34.00667 34014 ft 454 kts 332°
2026-05-04 18:48 34.05951 33.98178 33969 ft 452 kts 331°
2026-05-04 18:48 34.11851 33.95687 33962 ft 452 kts 331°
2026-05-04 18:49 34.17797 33.93184 33975 ft 452 kts 332°
2026-05-04 18:49 34.23743 33.90681 33982 ft 453 kts 332°
2026-05-04 18:50 34.29640 33.88193 33966 ft 451 kts 332°
2026-05-04 18:50 34.35567 33.85689 33952 ft 451 kts 332°
2026-05-04 18:51 34.41500 33.83169 33957 ft 452 kts 332°
2026-05-04 18:51 34.47432 33.80648 33958 ft 452 kts 332°
2026-05-04 18:52 34.53356 33.78086 33957 ft 451 kts 332°
2026-05-04 18:52 34.59234 33.75434 33947 ft 450 kts 332°
2026-05-04 18:53 34.65055 33.72781 33948 ft 450 kts 332°
2026-05-04 18:53 34.70917 33.70072 33944 ft 450 kts 332°
2026-05-04 18:54 34.76778 33.67371 33932 ft 450 kts 333°
2026-05-04 18:54 34.82598 33.64719 33925 ft 450 kts 333°
2026-05-04 18:55 34.88513 33.62171 33922 ft 456 kts 339°
2026-05-04 18:55 34.97721 33.59236 33931 ft 456 kts 339°
2026-05-04 18:56 35.03871 33.57269 33954 ft 457 kts 339°
2026-05-04 18:56 35.09975 33.55304 33947 ft 457 kts 339°
2026-05-04 18:57 35.16122 33.53326 33935 ft 457 kts 339°
2026-05-04 18:57 35.22280 33.51343 33962 ft 457 kts 340°
2026-05-04 18:58 35.28421 33.49371 33947 ft 456 kts 340°
2026-05-04 18:58 35.34499 33.47409 33941 ft 454 kts 340°
2026-05-04 18:59 35.40606 33.45429 33932 ft 454 kts 340°
2026-05-04 18:59 35.46708 33.43450 33948 ft 453 kts 340°
2026-05-04 19:00 35.52771 33.41488 33908 ft 450 kts 340°
2026-05-04 19:00 35.58779 33.39543 33905 ft 450 kts 340°
2026-05-04 19:01 35.64827 33.37567 33907 ft 450 kts 340°
2026-05-04 19:01 35.70878 33.35587 33908 ft 450 kts 340°
2026-05-04 19:02 35.76929 33.33616 33905 ft 450 kts 340°
2026-05-04 19:02 35.82978 33.31636 33905 ft 450 kts 340°
2026-05-04 19:03 35.88988 33.29669 33906 ft 450 kts 340°
2026-05-04 19:03 35.95200 33.28367 33904 ft 460 kts 354°
2026-05-04 19:04 36.01636 33.28612 33900 ft 464 kts 356°
2026-05-04 19:04 36.08083 33.28762 33897 ft 463 kts 354°
2026-05-04 19:05 36.14473 33.28588 33916 ft 462 kts 353°
2026-05-04 19:05 36.20927 33.28446 33893 ft 466 kts 355°
2026-05-04 19:06 36.27423 33.28519 33891 ft 467 kts 356°
2026-05-04 19:06 36.33927 33.28644 33898 ft 468 kts 356°
2026-05-04 19:07 36.40401 33.28735 33908 ft 468 kts 355°
2026-05-04 19:07 36.46917 33.28796 33915 ft 468 kts 355°
2026-05-04 19:08 36.53432 33.28845 33923 ft 468 kts 355°
2026-05-04 19:08 36.59949 33.28902 33945 ft 468 kts 356°
2026-05-04 19:09 36.66462 33.28973 33941 ft 468 kts 356°
2026-05-04 19:09 36.72926 33.29048 33941 ft 468 kts 356°
2026-05-04 19:10 36.79434 33.29122 33973 ft 467 kts 356°
2026-05-04 19:10 36.85937 33.29189 33958 ft 467 kts 356°
2026-05-04 19:11 36.92414 33.29019 33959 ft 465 kts 353°
2026-05-04 19:11 36.98821 33.28590 33979 ft 464 kts 352°
2026-05-04 19:12 37.08500 33.27973 33983 ft 464 kts 353°
2026-05-04 19:13 37.14956 33.27637 33977 ft 464 kts 353°
2026-05-04 19:13 37.21409 33.27314 33993 ft 464 kts 353°
2026-05-04 19:14 37.27809 33.26981 33986 ft 464 kts 353°
2026-05-04 19:14 37.34261 33.26626 33982 ft 464 kts 353°
2026-05-04 19:15 37.40704 33.26270 33984 ft 464 kts 353°
2026-05-04 19:15 37.47169 33.25923 33975 ft 465 kts 354°
2026-05-04 19:16 37.53586 33.25581 33972 ft 465 kts 354°
2026-05-04 19:16 37.60045 33.25234 33988 ft 465 kts 354°
2026-05-04 19:17 37.66518 33.24884 33972 ft 465 kts 354°
2026-05-04 19:17 37.72988 33.24533 33968 ft 466 kts 354°
2026-05-04 19:18 37.79469 33.24184 33967 ft 466 kts 354°
2026-05-04 19:18 37.85906 33.23824 33963 ft 467 kts 354°
2026-05-04 19:19 37.92394 33.23463 33967 ft 467 kts 354°
2026-05-04 19:19 37.98885 33.23113 33977 ft 467 kts 355°
2026-05-04 19:20 38.05383 33.22762 33973 ft 467 kts 355°
2026-05-04 19:20 38.11823 33.22411 33968 ft 467 kts 355°
2026-05-04 19:21 38.18310 33.22056 33978 ft 466 kts 355°
2026-05-04 19:21 38.24787 33.21710 33968 ft 465 kts 355°
2026-05-04 19:22 38.31252 33.21359 33963 ft 465 kts 355°
2026-05-04 19:22 38.37675 33.21005 33959 ft 465 kts 355°
2026-05-04 19:23 38.44131 33.20644 33955 ft 464 kts 355°
2026-05-04 19:23 38.50588 33.20285 33954 ft 464 kts 355°
2026-05-04 19:24 38.57039 33.19926 33949 ft 464 kts 355°
2026-05-04 19:24 38.63477 33.19561 33949 ft 463 kts 356°
2026-05-04 19:25 38.69858 33.19210 33943 ft 462 kts 355°
2026-05-04 19:25 38.76272 33.18864 33938 ft 461 kts 355°
2026-05-04 19:26 38.82679 33.18506 33947 ft 460 kts 356°
2026-05-04 19:26 38.89071 33.18137 33941 ft 460 kts 355°
2026-05-04 19:27 38.95415 33.17791 33941 ft 459 kts 356°
2026-05-04 19:27 39.01798 33.17450 33943 ft 459 kts 356°
2026-05-04 19:28 39.08181 33.17092 33942 ft 459 kts 356°
2026-05-04 19:28 39.14520 33.16734 33941 ft 459 kts 356°
2026-05-04 19:29 39.20900 33.16376 33939 ft 459 kts 357°
2026-05-04 19:29 39.27304 33.16029 33938 ft 459 kts 357°
2026-05-04 19:30 39.33695 33.15671 33921 ft 461 kts 357°
2026-05-04 19:30 39.40002 33.15302 33916 ft 455 kts 357°
2026-05-04 19:31 39.46317 33.14940 33912 ft 454 kts 357°
2026-05-04 19:31 39.52625 33.14583 33912 ft 454 kts 358°
2026-05-04 19:32 39.58937 33.14231 33914 ft 454 kts 358°
2026-05-04 19:32 39.65206 33.13880 33919 ft 455 kts 358°
2026-05-04 19:33 39.71519 33.13524 33923 ft 455 kts 358°
2026-05-04 19:33 39.77848 33.13158 33929 ft 455 kts 358°
2026-05-04 19:34 39.84180 33.12791 33932 ft 455 kts 358°
2026-05-04 19:34 39.90473 33.12435 33933 ft 456 kts 358°
2026-05-04 19:35 39.96803 33.12070 33933 ft 455 kts 358°
2026-05-04 19:35 40.03132 33.11705 33936 ft 455 kts 358°
2026-05-04 19:36 40.09455 33.11340 33943 ft 454 kts 358°
2026-05-04 19:36 40.15769 33.10976 33941 ft 454 kts 358°
2026-05-04 19:37 40.22046 33.10600 33933 ft 454 kts 356°
2026-05-04 19:37 40.28191 33.08746 33941 ft 456 kts 343°
2026-05-04 19:38 40.34212 33.06125 33944 ft 455 kts 343°
2026-05-04 19:38 40.40231 33.03513 33940 ft 456 kts 343°
2026-05-04 19:39 40.46216 33.00897 33944 ft 456 kts 343°
2026-05-04 19:39 40.52239 32.98267 33957 ft 455 kts 343°
2026-05-04 19:40 40.58246 32.95637 33961 ft 455 kts 344°
2026-05-04 19:40 40.64257 32.92993 33950 ft 455 kts 344°
2026-05-04 19:41 40.70244 32.90361 33977 ft 453 kts 345°
2026-05-04 19:41 40.76182 32.87743 33979 ft 452 kts 345°
2026-05-04 19:42 40.82136 32.85109 33984 ft 451 kts 345°
2026-05-04 19:42 40.88082 32.82486 33973 ft 450 kts 345°
2026-05-04 19:43 40.94012 32.79857 33990 ft 448 kts 345°
2026-05-04 19:43 40.99912 32.77223 33993 ft 448 kts 345°
2026-05-04 19:44 41.05776 32.74609 33987 ft 447 kts 346°
2026-05-04 19:44 41.11663 32.71994 33978 ft 446 kts 346°
2026-05-04 19:45 41.17528 32.69377 33986 ft 444 kts 346°
2026-05-04 19:45 41.23368 32.66758 33986 ft 443 kts 346°
2026-05-04 19:46 41.29153 32.64164 33982 ft 442 kts 346°
2026-05-04 19:46 41.34973 32.61551 33965 ft 441 kts 346°
2026-05-04 19:47 41.40778 32.58935 33973 ft 439 kts 346°
2026-05-04 19:47 41.46556 32.56327 33972 ft 438 kts 346°
2026-05-04 19:48 41.52289 32.53733 33967 ft 437 kts 346°
2026-05-04 19:48 41.58046 32.51130 33947 ft 437 kts 346°
2026-05-04 19:49 41.63800 32.48521 33949 ft 436 kts 346°
2026-05-04 19:49 41.69543 32.45912 33947 ft 436 kts 346°
2026-05-04 19:50 41.75280 32.43305 33938 ft 436 kts 346°
2026-05-04 19:50 41.81020 32.40687 33932 ft 436 kts 346°
2026-05-04 19:51 41.86730 32.38079 33935 ft 436 kts 346°
2026-05-04 19:51 41.92470 32.35444 33947 ft 436 kts 346°
2026-05-04 19:52 41.98215 32.32798 33935 ft 436 kts 346°
2026-05-04 19:52 42.03960 32.30164 33939 ft 436 kts 346°
2026-05-04 19:53 42.09704 32.27529 33944 ft 436 kts 346°
2026-05-04 19:53 42.15449 32.24881 33940 ft 436 kts 346°
2026-05-04 19:54 42.21152 32.22242 33925 ft 436 kts 346°
2026-05-04 19:54 42.26894 32.19575 33901 ft 437 kts 346°
2026-05-04 19:55 42.32636 32.16908 33926 ft 437 kts 346°
2026-05-04 19:55 42.38382 32.14223 33931 ft 436 kts 346°
2026-05-04 19:56 42.44082 32.11566 33931 ft 437 kts 346°
2026-05-04 19:56 42.49829 32.08884 33904 ft 437 kts 346°
2026-05-04 19:57 42.55575 32.06204 33928 ft 436 kts 346°
2026-05-04 19:57 42.61305 32.03509 33948 ft 436 kts 346°
2026-05-04 19:58 42.67002 32.00839 33943 ft 436 kts 346°
2026-05-04 19:58 42.72736 31.98151 33942 ft 436 kts 346°
2026-05-04 19:59 42.78461 31.95453 33936 ft 435 kts 346°
2026-05-04 19:59 42.84266 31.93351 33952 ft 431 kts 352°
2026-05-04 20:00 42.90107 31.91478 33958 ft 431 kts 351°
2026-05-04 20:00 42.95898 31.89611 33956 ft 431 kts 352°
2026-05-04 20:01 43.01738 31.87720 33936 ft 431 kts 352°
2026-05-04 20:01 43.07572 31.85829 33965 ft 431 kts 352°
2026-05-04 20:02 43.13406 31.83933 33971 ft 431 kts 352°
2026-05-04 20:02 43.19199 31.82044 33974 ft 431 kts 352°
2026-05-04 20:03 43.25031 31.80135 33974 ft 431 kts 352°
2026-05-04 20:03 43.30858 31.78230 33961 ft 431 kts 352°
2026-05-04 20:04 43.36695 31.76323 33975 ft 431 kts 352°
2026-05-04 20:04 43.42530 31.74402 33977 ft 431 kts 352°
2026-05-04 20:05 43.48326 31.72498 33986 ft 431 kts 352°
2026-05-04 20:05 43.54159 31.70543 33960 ft 432 kts 351°
2026-05-04 20:06 43.60009 31.68557 33971 ft 433 kts 351°
2026-05-04 20:06 43.65874 31.66571 33970 ft 434 kts 351°
2026-05-04 20:07 43.71745 31.64590 33977 ft 435 kts 351°
2026-05-04 20:07 43.77588 31.62618 33984 ft 435 kts 351°
2026-05-04 20:08 43.83474 31.60612 33976 ft 436 kts 350°
2026-05-04 20:08 43.89361 31.58602 33975 ft 436 kts 350°
2026-05-04 20:09 43.95270 31.56588 33986 ft 437 kts 350°
2026-05-04 20:09 44.01135 31.54578 33996 ft 437 kts 350°
2026-05-04 20:10 44.07042 31.52562 34013 ft 437 kts 350°
2026-05-04 20:10 44.12946 31.50547 33989 ft 438 kts 349°
2026-05-04 20:11 44.18870 31.48517 33999 ft 438 kts 349°
2026-05-04 20:11 44.24792 31.46465 34009 ft 439 kts 349°
2026-05-04 20:12 44.30678 31.44436 34014 ft 439 kts 349°
2026-05-04 20:12 44.36608 31.42398 33998 ft 439 kts 349°
2026-05-04 20:13 44.42551 31.40346 33998 ft 441 kts 349°
2026-05-04 20:13 44.48514 31.38279 34005 ft 442 kts 349°
2026-05-04 20:14 44.54445 31.36225 34015 ft 442 kts 349°
2026-05-04 20:14 44.60424 31.34162 34026 ft 443 kts 349°
2026-05-04 20:15 44.66411 31.32080 34028 ft 443 kts 349°
2026-05-04 20:15 44.72403 31.29982 34034 ft 444 kts 349°
2026-05-04 20:16 44.78393 31.27887 34041 ft 444 kts 349°
2026-05-04 20:16 44.84355 31.25802 34035 ft 444 kts 349°
2026-05-04 20:17 44.90362 31.23699 34032 ft 445 kts 349°
2026-05-04 20:17 44.96389 31.21588 34024 ft 447 kts 348°
2026-05-04 20:18 45.02430 31.19454 34021 ft 448 kts 348°
2026-05-04 20:18 45.08446 31.17319 34030 ft 449 kts 348°
2026-05-04 20:19 45.14513 31.15169 34031 ft 450 kts 348°
2026-05-04 20:19 45.20607 31.13024 34018 ft 451 kts 348°
2026-05-04 20:20 45.26710 31.10872 34020 ft 453 kts 348°
2026-05-04 20:20 45.32792 31.08660 34030 ft 455 kts 347°
2026-05-04 20:21 45.38929 31.06370 34034 ft 456 kts 347°
2026-05-04 20:21 45.48157 31.02940 34044 ft 458 kts 347°
2026-05-04 20:22 45.54327 31.00655 34042 ft 458 kts 346°
2026-05-04 20:22 45.60466 30.98375 34049 ft 459 kts 346°
2026-05-04 20:23 45.66657 30.96087 34054 ft 460 kts 346°
2026-05-04 20:23 45.72854 30.93775 34060 ft 461 kts 346°
2026-05-04 20:24 45.79066 30.91454 34061 ft 461 kts 346°
2026-05-04 20:24 45.85280 30.89142 34067 ft 462 kts 346°
2026-05-04 20:25 45.91455 30.86836 34081 ft 462 kts 345°
2026-05-04 20:25 45.97675 30.84446 34085 ft 463 kts 345°
2026-05-04 20:26 46.03883 30.82030 34084 ft 463 kts 345°
2026-05-04 20:26 46.10103 30.79621 34067 ft 463 kts 345°
2026-05-04 20:27 46.16296 30.77224 34063 ft 464 kts 345°
2026-05-04 20:27 46.22543 30.74812 34062 ft 465 kts 345°
2026-05-04 20:28 46.28796 30.72384 34069 ft 465 kts 345°
2026-05-04 20:28 46.35053 30.69940 34074 ft 466 kts 345°
2026-05-04 20:29 46.41304 30.67505 34079 ft 465 kts 345°
2026-05-04 20:29 46.47529 30.65231 34081 ft 464 kts 347°
2026-05-04 20:30 46.53841 30.63262 34076 ft 463 kts 348°
2026-05-04 20:30 46.60145 30.61331 34080 ft 463 kts 347°
2026-05-04 20:31 46.66438 30.59317 34067 ft 462 kts 347°
2026-05-04 20:31 46.72667 30.57279 34065 ft 462 kts 346°
2026-05-04 20:32 46.78930 30.55226 34069 ft 461 kts 346°
2026-05-04 20:32 46.85196 30.53174 34075 ft 461 kts 346°
2026-05-04 20:33 46.91458 30.51131 34079 ft 461 kts 347°
2026-05-04 20:33 46.97715 30.49080 34064 ft 461 kts 346°
2026-05-04 20:34 47.03929 30.47030 34076 ft 461 kts 346°
2026-05-04 20:34 47.10178 30.44967 34069 ft 460 kts 346°
2026-05-04 20:35 47.16338 30.42474 34066 ft 458 kts 336°
2026-05-04 20:35 47.21954 30.38141 33534 ft 454 kts 330°
2026-05-04 20:36 47.24725 30.35896 32744 ft 456 kts 330°
2026-05-04 20:36 47.27474 30.33676 31953 ft 458 kts 331°
2026-05-04 20:36 47.30272 30.31425 31333 ft 457 kts 332°
2026-05-04 20:36 47.33067 30.29178 31090 ft 461 kts 332°
2026-05-04 20:37 47.35887 30.26904 30842 ft 463 kts 332°
2026-05-04 20:37 47.38715 30.24615 30597 ft 464 kts 332°
2026-05-04 20:37 47.41541 30.22318 30356 ft 464 kts 332°
2026-05-04 20:37 47.44373 30.20012 30111 ft 465 kts 332°
2026-05-04 20:38 47.47207 30.17700 29831 ft 466 kts 333°
2026-05-04 20:38 47.50050 30.15378 29542 ft 467 kts 333°
2026-05-04 20:38 47.52894 30.13054 29259 ft 467 kts 333°
2026-05-04 20:38 47.55737 30.10731 28979 ft 468 kts 333°
2026-05-04 20:39 47.58548 30.08434 28708 ft 468 kts 333°
2026-05-04 20:39 47.61405 30.06099 28431 ft 469 kts 333°
2026-05-04 20:39 47.64266 30.03760 28168 ft 469 kts 333°
2026-05-04 20:39 47.67123 30.01418 27890 ft 470 kts 333°
2026-05-04 20:40 47.69983 29.99068 27622 ft 470 kts 333°
2026-05-04 20:40 47.72849 29.96707 27360 ft 471 kts 333°
2026-05-04 20:40 47.75709 29.94345 27092 ft 471 kts 333°
2026-05-04 20:40 47.78571 29.91981 26826 ft 471 kts 333°
2026-05-04 20:41 47.81405 29.89642 26573 ft 472 kts 333°
2026-05-04 20:41 47.84273 29.87275 26330 ft 472 kts 333°
2026-05-04 20:41 47.87151 29.84893 26077 ft 473 kts 333°
2026-05-04 20:41 47.90028 29.82504 25818 ft 473 kts 333°
2026-05-04 20:42 47.92904 29.80112 25578 ft 474 kts 333°
2026-05-04 20:42 47.95787 29.77710 25332 ft 474 kts 333°
2026-05-04 20:42 47.98666 29.75309 25089 ft 475 kts 333°
2026-05-04 20:42 48.01556 29.72898 24837 ft 475 kts 333°
2026-05-04 20:43 48.04436 29.70492 24600 ft 475 kts 333°
2026-05-04 20:43 48.07276 29.68110 23953 ft 473 kts 333°
2026-05-04 20:43 48.10121 29.65625 22898 ft 474 kts 331°
2026-05-04 20:43 48.12914 29.63080 22129 ft 467 kts 331°
2026-05-04 20:44 48.15658 29.60529 21423 ft 460 kts 330°
2026-05-04 20:44 48.18364 29.57993 20488 ft 457 kts 330°
2026-05-04 20:44 48.21028 29.55496 19905 ft 448 kts 330°
2026-05-04 20:44 48.23665 29.53042 19144 ft 443 kts 331°
2026-05-04 20:45 48.26273 29.50627 18413 ft 438 kts 331°
2026-05-04 20:45 48.28821 29.48278 17641 ft 432 kts 331°
2026-05-04 20:45 48.31365 29.45936 16869 ft 427 kts 331°
2026-05-04 20:45 48.33880 29.43616 16104 ft 421 kts 331°
2026-05-04 20:46 48.36363 29.41326 15374 ft 416 kts 332°
2026-05-04 20:46 48.38815 29.39069 14675 ft 411 kts 332°
2026-05-04 20:46 48.41241 29.36831 14014 ft 406 kts 332°
2026-05-04 20:46 48.43637 29.34619 13315 ft 402 kts 332°
2026-05-04 20:47 48.46005 29.32431 12649 ft 398 kts 332°
2026-05-04 20:47 48.48354 29.30258 11990 ft 394 kts 331°
2026-05-04 20:47 48.50630 29.28143 11633 ft 382 kts 331°
2026-05-04 20:47 48.52839 29.26083 11503 ft 364 kts 331°
2026-05-04 20:48 48.54938 29.24121 11379 ft 347 kts 331°
2026-05-04 20:48 48.56941 29.22246 11250 ft 331 kts 331°
2026-05-04 20:48 48.58850 29.20458 11134 ft 316 kts 331°
2026-05-04 20:48 48.60684 29.18749 11006 ft 303 kts 332°
2026-05-04 20:49 48.62448 29.17107 10882 ft 291 kts 332°
2026-05-04 20:49 48.64145 29.15520 10661 ft 284 kts 332°
2026-05-04 20:49 48.65817 29.13958 10372 ft 280 kts 332°
2026-05-04 20:49 48.67433 29.12448 10234 ft 276 kts 332°
2026-05-04 20:50 48.69067 29.10921 10098 ft 276 kts 331°
2026-05-04 20:50 48.70698 29.09391 9836 ft 277 kts 331°
2026-05-04 20:50 48.72335 29.07853 9417 ft 277 kts 331°
2026-05-04 20:50 48.73965 29.06323 9053 ft 275 kts 331°
2026-05-04 20:51 48.75585 29.04801 8691 ft 273 kts 330°
2026-05-04 20:51 48.77195 29.03282 8338 ft 272 kts 330°
2026-05-04 20:51 48.78796 29.01770 7984 ft 270 kts 330°
2026-05-04 20:51 48.80367 29.00292 7635 ft 269 kts 330°
2026-05-04 20:52 48.81955 28.98802 7284 ft 268 kts 329°
2026-05-04 20:52 48.83540 28.97311 6933 ft 267 kts 329°
2026-05-04 20:52 48.85116 28.95826 6590 ft 266 kts 329°
2026-05-04 20:52 48.86688 28.94341 6229 ft 266 kts 328°
2026-05-04 20:53 48.88257 28.92856 5878 ft 266 kts 328°
2026-05-04 20:53 48.89829 28.91368 5522 ft 267 kts 328°
2026-05-04 20:53 48.91399 28.89875 5171 ft 266 kts 328°
2026-05-04 20:53 48.92972 28.88379 4826 ft 266 kts 327°
2026-05-04 20:54 48.94012 28.87391 4583 ft 267 kts 328°
2026-05-04 20:54 48.96116 28.85408 4111 ft 269 kts 329°
2026-05-04 20:54 48.97836 28.84302 3991 ft 270 kts 340°
2026-05-04 20:54 48.99620 28.83400 3997 ft 271 kts 340°
2026-05-04 20:55 49.01410 28.82485 4005 ft 271 kts 340°
2026-05-04 20:55 49.02595 28.81879 4003 ft 271 kts 340°
2026-05-04 20:55 49.04385 28.80964 4007 ft 271 kts 340°
2026-05-04 20:55 49.06163 28.80053 3994 ft 264 kts 340°
2026-05-04 20:56 49.07850 28.79187 3999 ft 248 kts 340°
2026-05-04 20:56 49.09425 28.78381 4020 ft 229 kts 340°
2026-05-04 20:56 49.11313 28.77412 4019 ft 201 kts 339°
2026-05-04 20:56 49.12176 28.76971 3995 ft 187 kts 339°
2026-05-04 20:57 49.13588 28.75975 3896 ft 157 kts 323°
2026-05-04 20:57 49.14148 28.75296 3670 ft 154 kts 313°
2026-05-04 20:57 49.14924 28.74159 3311 ft 156 kts 312°
2026-05-04 20:57 49.15727 28.73022 3042 ft 158 kts 313°
2026-05-04 20:58 49.16549 28.71885 2805 ft 160 kts 313°
2026-05-04 20:58 49.17381 28.70746 2587 ft 161 kts 314°
2026-05-04 20:58 49.18217 28.69606 2373 ft 161 kts 314°
2026-05-04 20:58 49.19055 28.68465 2156 ft 161 kts 314°
2026-05-04 20:59 49.19895 28.67322 1939 ft 162 kts 314°
2026-05-04 20:59 49.20741 28.66168 1728 ft 162 kts 314°
2026-05-04 20:59 49.21564 28.65049 1505 ft 159 kts 314°
2026-05-04 20:59 49.22372 28.63939 1302 ft 154 kts 316°
2026-05-04 21:00 49.23171 28.62857 1098 ft 153 kts 317°
2026-05-04 21:00 49.23949 28.61798 984 ft 138 kts 317°
2026-05-04 21:00 49.24479 28.61074 979 ft 59 kts 318°
2026-05-04 21:00 49.24673 28.60809 983 ft 33 kts 318°
2026-05-04 21:01 49.24774 28.60637 970 ft 10 kts 266°
2026-05-04 21:01 49.24737 28.60561 980 ft 9 kts 229°
2026-05-04 21:01 49.24691 28.60483 977 ft 11 kts 228°
2026-05-04 21:01 49.24633 28.60473 972 ft 10 kts 140°
2026-05-04 21:02 49.24579 28.60547 977 ft 11 kts 138°
2026-05-04 21:02 49.24519 28.60630 977 ft 12 kts 138°
2026-05-04 21:02 49.24452 28.60722 980 ft 14 kts 138°
2026-05-04 21:02 49.24377 28.60820 976 ft 14 kts 152°
2026-05-04 21:03 49.24344 28.60795 972 ft 5 kts 227°
2026-05-04 21:03 49.24319 28.60754 980 ft 5 kts 227°
2026-05-04 21:03 49.24299 28.60721 978 ft 4 kts 227°
2026-05-04 21:03 49.24278 28.60686 983 ft 5 kts 227°
2026-05-04 21:04 49.24276 28.60645 977 ft 4 kts 299°
2026-05-04 21:04 49.24288 28.60619 975 ft 1 kts 315°
2026-05-04 21:04 49.24289 28.60618 975 ft 1 kts 315°
2026-05-04 21:04 49.24291 28.60614 977 ft 0 kts 315°